Year,Month,Day,Hour,Minute,Value (Times are PST for temperature in C)
2017,11,28,01,28,5.00
2017,11,28,01,29,5.00
2017,11,28,01,30,5.00
2017,11,28,01,31,5.00
2017,11,28,01,32,5.00
2017,11,28,01,33,5.00
2017,11,28,01,34,5.00
2017,11,28,01,35,5.00
2017,11,28,01,36,5.00
2017,11,28,01,37,5.10
2017,11,28,01,38,5.00
2017,11,28,01,39,5.00
2017,11,28,01,40,5.00
2017,11,28,01,41,5.00
2017,11,28,01,42,5.00
2017,11,28,01,43,5.00
2017,11,28,01,44,5.00
2017,11,28,01,45,5.00
2017,11,28,01,46,5.00
2017,11,28,01,47,5.00
2017,11,28,01,48,5.00
2017,11,28,01,49,5.00
2017,11,28,01,50,5.00
2017,11,28,01,51,5.00
2017,11,28,01,52,5.00
2017,11,28,01,53,5.00
2017,11,28,01,54,5.00
2017,11,28,01,55,5.00
2017,11,28,01,56,5.00
2017,11,28,01,57,5.00
2017,11,28,01,58,5.00
2017,11,28,01,59,5.00
2017,11,28,02,00,5.00
2017,11,28,02,01,5.00
2017,11,28,02,02,5.00
2017,11,28,02,03,5.00
2017,11,28,02,04,5.00
2017,11,28,02,05,5.00
2017,11,28,02,06,5.00
2017,11,28,02,07,5.00
2017,11,28,02,08,5.00
2017,11,28,02,09,5.00
2017,11,28,02,10,5.00
2017,11,28,02,11,4.90
2017,11,28,02,12,4.90
2017,11,28,02,13,4.90
2017,11,28,02,14,4.90
2017,11,28,02,15,4.90
2017,11,28,02,16,4.90
2017,11,28,02,17,4.90
2017,11,28,02,18,4.90
2017,11,28,02,19,4.90
2017,11,28,02,20,4.90
2017,11,28,02,21,4.90
2017,11,28,02,22,4.90
2017,11,28,02,23,4.90
2017,11,28,02,24,4.90
2017,11,28,02,25,4.90
2017,11,28,02,26,4.90
2017,11,28,02,27,4.90
2017,11,28,02,28,4.90
2017,11,28,02,29,4.90
2017,11,28,02,30,4.90
2017,11,28,02,31,4.90
2017,11,28,02,32,4.90
2017,11,28,02,33,4.90
2017,11,28,02,34,4.90
2017,11,28,02,35,4.90
2017,11,28,02,36,4.90
2017,11,28,02,37,4.90
2017,11,28,02,38,4.90
2017,11,28,02,39,4.90
2017,11,28,02,40,4.90
2017,11,28,02,41,4.90
2017,11,28,02,42,4.90
2017,11,28,02,43,4.90
2017,11,28,02,44,4.90
2017,11,28,02,45,4.90
2017,11,28,02,46,4.90
2017,11,28,02,47,4.90
2017,11,28,02,48,4.90
2017,11,28,02,49,4.90
2017,11,28,02,50,4.90
2017,11,28,02,51,4.90
2017,11,28,02,52,4.90
2017,11,28,02,53,4.80
2017,11,28,02,54,4.80
2017,11,28,02,55,4.80
2017,11,28,02,56,4.80
2017,11,28,02,57,4.80
2017,11,28,02,58,4.80
2017,11,28,02,59,4.80
2017,11,28,03,00,4.80
2017,11,28,03,01,4.80
2017,11,28,03,02,4.80
2017,11,28,03,03,4.80
2017,11,28,03,04,4.80
2017,11,28,03,05,4.80
2017,11,28,03,06,4.80
2017,11,28,03,07,4.80
2017,11,28,03,08,4.90
2017,11,28,03,09,4.90
2017,11,28,03,10,4.90
2017,11,28,03,11,4.90
2017,11,28,03,12,4.90
2017,11,28,03,13,4.90
2017,11,28,03,14,4.90
2017,11,28,03,15,4.90
2017,11,28,03,16,4.90
2017,11,28,03,17,4.90
2017,11,28,03,18,4.90
2017,11,28,03,19,4.90
2017,11,28,03,20,4.90
2017,11,28,03,21,4.90
2017,11,28,03,22,4.90
2017,11,28,03,23,4.90
2017,11,28,03,24,4.90
2017,11,28,03,25,4.90
2017,11,28,03,26,4.90
2017,11,28,03,27,4.90
2017,11,28,03,28,4.90
2017,11,28,03,29,4.90
2017,11,28,03,30,4.90
2017,11,28,03,31,4.90
2017,11,28,03,32,4.80
2017,11,28,03,33,4.80
2017,11,28,03,34,4.80
2017,11,28,03,35,4.80
2017,11,28,03,36,4.80
2017,11,28,03,37,4.80
2017,11,28,03,38,4.80
2017,11,28,03,39,4.80
2017,11,28,03,40,4.80
2017,11,28,03,41,4.80
2017,11,28,03,42,4.80
2017,11,28,03,43,4.80
2017,11,28,03,44,4.80
2017,11,28,03,45,4.80
2017,11,28,03,46,4.80
2017,11,28,03,47,4.80
2017,11,28,03,48,4.90
2017,11,28,03,49,4.90
2017,11,28,03,50,4.90
2017,11,28,03,51,4.90
2017,11,28,03,52,4.90
2017,11,28,03,53,4.90
2017,11,28,03,54,4.90
2017,11,28,03,55,4.90
2017,11,28,03,56,4.90
2017,11,28,03,57,4.90
2017,11,28,03,58,4.90
2017,11,28,03,59,4.90
2017,11,28,04,00,4.90
2017,11,28,04,01,4.90
2017,11,28,04,02,4.90
2017,11,28,04,03,4.90
2017,11,28,04,04,4.90
2017,11,28,04,05,4.90
2017,11,28,04,06,4.90
2017,11,28,04,07,4.90
2017,11,28,04,08,4.90
2017,11,28,04,09,4.90
2017,11,28,04,10,4.90
2017,11,28,04,11,4.90
2017,11,28,04,12,4.90
2017,11,28,04,13,4.90
2017,11,28,04,14,4.90
2017,11,28,04,15,4.90
2017,11,28,04,16,4.90
2017,11,28,04,17,4.90
2017,11,28,04,18,5.00
2017,11,28,04,19,5.00
2017,11,28,04,20,4.90
2017,11,28,04,21,4.90
2017,11,28,04,22,4.90
2017,11,28,04,23,4.80
2017,11,28,04,24,4.70
2017,11,28,04,25,4.60
2017,11,28,04,26,4.50
2017,11,28,04,27,4.40
2017,11,28,04,28,4.40
2017,11,28,04,29,4.40
2017,11,28,04,30,4.30
2017,11,28,04,31,4.30
2017,11,28,04,32,4.30
2017,11,28,04,33,4.30
2017,11,28,04,34,4.40
2017,11,28,04,35,4.40
2017,11,28,04,36,4.40
2017,11,28,04,37,4.40
2017,11,28,04,38,4.40
2017,11,28,04,39,4.40
2017,11,28,04,40,4.40
2017,11,28,04,41,4.40
2017,11,28,04,42,4.40
2017,11,28,04,43,4.40
2017,11,28,04,44,4.40
2017,11,28,04,45,4.40
2017,11,28,04,46,4.30
2017,11,28,04,47,4.30
2017,11,28,04,48,4.30
2017,11,28,04,49,4.30
2017,11,28,04,50,4.30
2017,11,28,04,51,4.30
2017,11,28,04,52,4.30
2017,11,28,04,53,4.30
2017,11,28,04,54,4.20
2017,11,28,04,55,4.20
2017,11,28,04,56,4.20
2017,11,28,04,57,4.20
2017,11,28,04,58,4.20
2017,11,28,04,59,4.20
2017,11,28,05,00,4.20
2017,11,28,05,01,4.20
2017,11,28,05,02,4.20
2017,11,28,05,03,4.20
2017,11,28,05,04,4.20
2017,11,28,05,05,4.10
2017,11,28,05,06,4.10
2017,11,28,05,07,4.10
2017,11,28,05,08,4.10
2017,11,28,05,09,4.10
2017,11,28,05,10,4.10
2017,11,28,05,11,4.00
2017,11,28,05,12,4.00
2017,11,28,05,13,4.00
2017,11,28,05,14,4.00
2017,11,28,05,15,4.00
2017,11,28,05,16,4.00
2017,11,28,05,17,4.00
2017,11,28,05,18,4.00
2017,11,28,05,19,4.00
2017,11,28,05,20,4.00
2017,11,28,05,21,4.00
2017,11,28,05,22,4.00
2017,11,28,05,23,4.00
2017,11,28,05,24,4.00
2017,11,28,05,25,4.00
2017,11,28,05,26,4.00
2017,11,28,05,27,4.00
2017,11,28,05,28,4.00
2017,11,28,05,29,4.00
2017,11,28,05,30,4.00
2017,11,28,05,31,4.00
2017,11,28,05,32,4.00
2017,11,28,05,33,4.00
2017,11,28,05,34,4.00
2017,11,28,05,35,4.00
2017,11,28,05,36,4.00
2017,11,28,05,37,4.00
2017,11,28,05,38,4.00
2017,11,28,05,39,4.00
2017,11,28,05,40,4.00
2017,11,28,05,41,4.00
2017,11,28,05,42,4.00
2017,11,28,05,43,4.00
2017,11,28,05,44,4.00
2017,11,28,05,45,4.00
2017,11,28,05,46,4.00
2017,11,28,05,47,4.00
2017,11,28,05,48,4.00
2017,11,28,05,49,4.10
2017,11,28,05,50,4.00
2017,11,28,05,51,4.00
2017,11,28,05,52,4.10
2017,11,28,05,53,4.00
2017,11,28,05,54,4.00
2017,11,28,05,55,4.00
2017,11,28,05,56,4.00
2017,11,28,05,57,4.00
2017,11,28,05,58,4.00
2017,11,28,05,59,4.00
2017,11,28,06,00,4.00
2017,11,28,06,01,4.00
2017,11,28,06,02,4.00
2017,11,28,06,03,4.00
2017,11,28,06,04,4.00
2017,11,28,06,05,4.00
2017,11,28,06,06,4.00
2017,11,28,06,07,4.00
2017,11,28,06,08,4.00
2017,11,28,06,09,4.00
2017,11,28,06,10,4.00
2017,11,28,06,11,4.00
2017,11,28,06,12,4.00
2017,11,28,06,13,4.00
2017,11,28,06,14,4.00
2017,11,28,06,15,4.10
2017,11,28,06,16,4.10
2017,11,28,06,17,4.10
2017,11,28,06,18,4.10
2017,11,28,06,19,4.10
2017,11,28,06,20,4.10
2017,11,28,06,21,4.10
2017,11,28,06,22,4.10
2017,11,28,06,23,4.10
2017,11,28,06,24,4.10
2017,11,28,06,25,4.10
2017,11,28,06,26,4.10
2017,11,28,06,27,4.10
2017,11,28,06,28,4.10
2017,11,28,06,29,4.10
2017,11,28,06,30,4.10
2017,11,28,06,31,4.20
2017,11,28,06,32,4.20
2017,11,28,06,33,4.20
2017,11,28,06,34,4.20
2017,11,28,06,35,4.20
2017,11,28,06,36,4.20
2017,11,28,06,37,4.20
2017,11,28,06,38,4.20
2017,11,28,06,39,4.20
2017,11,28,06,40,4.10
2017,11,28,06,41,4.10
2017,11,28,06,42,4.10
2017,11,28,06,43,4.10
2017,11,28,06,44,4.00
2017,11,28,06,45,4.00
2017,11,28,06,46,4.00
2017,11,28,06,47,4.00
2017,11,28,06,48,4.00
2017,11,28,06,49,4.00
2017,11,28,06,50,4.00
2017,11,28,06,51,4.00
2017,11,28,06,52,4.00
2017,11,28,06,53,4.00
2017,11,28,06,54,4.00
2017,11,28,06,55,4.00
2017,11,28,06,56,4.00
2017,11,28,06,57,4.00
2017,11,28,06,58,4.00
2017,11,28,06,59,4.00
2017,11,28,07,00,4.00
2017,11,28,07,01,4.00
2017,11,28,07,02,4.00
2017,11,28,07,03,4.00
2017,11,28,07,04,4.10
2017,11,28,07,05,4.10
2017,11,28,07,06,4.10
2017,11,28,07,07,4.10
2017,11,28,07,08,4.10
2017,11,28,07,09,4.10
2017,11,28,07,10,4.10
2017,11,28,07,11,4.10
2017,11,28,07,12,4.10
2017,11,28,07,13,4.10
2017,11,28,07,14,4.10
2017,11,28,07,15,4.10
2017,11,28,07,16,4.10
2017,11,28,07,17,4.10
2017,11,28,07,18,4.10
2017,11,28,07,19,4.10
2017,11,28,07,20,4.10
2017,11,28,07,21,4.10
2017,11,28,07,22,4.20
2017,11,28,07,23,4.20
2017,11,28,07,24,4.20
2017,11,28,07,25,4.20
2017,11,28,07,26,4.20
2017,11,28,07,27,4.20
2017,11,28,07,28,4.10
2017,11,28,07,29,4.10
2017,11,28,07,30,4.10
2017,11,28,07,31,4.10
2017,11,28,07,32,4.10
2017,11,28,07,33,4.10
2017,11,28,07,34,4.00
2017,11,28,07,35,4.00
2017,11,28,07,36,4.00
2017,11,28,07,37,4.00
2017,11,28,07,38,4.00
2017,11,28,07,39,4.00
2017,11,28,07,40,4.00
2017,11,28,07,41,4.00
2017,11,28,07,42,4.10
2017,11,28,07,43,4.10
2017,11,28,07,44,4.00
2017,11,28,07,45,4.00
2017,11,28,07,46,4.00
2017,11,28,07,47,4.00
2017,11,28,07,48,4.00
2017,11,28,07,49,4.00
2017,11,28,07,50,4.00
2017,11,28,07,51,4.10
2017,11,28,07,52,4.10
2017,11,28,07,53,4.10
2017,11,28,07,54,4.10
2017,11,28,07,55,4.20
2017,11,28,07,56,4.20
2017,11,28,07,57,4.20
2017,11,28,07,58,4.20
2017,11,28,07,59,4.20
2017,11,28,08,00,4.20
2017,11,28,08,01,4.20
2017,11,28,08,02,4.20
2017,11,28,08,03,4.20
2017,11,28,08,04,4.20
2017,11,28,08,05,4.20
2017,11,28,08,06,4.20
2017,11,28,08,07,4.20
2017,11,28,08,08,4.20
2017,11,28,08,09,4.20
2017,11,28,08,10,4.20
2017,11,28,08,11,4.20
2017,11,28,08,12,4.30
2017,11,28,08,13,4.30
2017,11,28,08,14,4.30
2017,11,28,08,15,4.30
2017,11,28,08,16,4.30
2017,11,28,08,17,4.30
2017,11,28,08,18,4.40
2017,11,28,08,19,4.40
2017,11,28,08,20,4.40
2017,11,28,08,21,4.40
2017,11,28,08,22,4.40
2017,11,28,08,23,4.30
2017,11,28,08,24,4.30
2017,11,28,08,25,4.30
2017,11,28,08,26,4.30
2017,11,28,08,27,4.30
2017,11,28,08,28,4.20
2017,11,28,08,29,4.20
2017,11,28,08,30,4.20
2017,11,28,08,31,4.20
2017,11,28,08,32,4.20
2017,11,28,08,33,4.20
2017,11,28,08,34,4.20
2017,11,28,08,35,4.20
2017,11,28,08,36,4.20
2017,11,28,08,37,4.20
2017,11,28,08,38,4.20
2017,11,28,08,39,4.20
2017,11,28,08,40,4.20
2017,11,28,08,41,4.20
2017,11,28,08,42,4.20
2017,11,28,08,43,4.10
2017,11,28,08,44,4.10
2017,11,28,08,45,4.10
2017,11,28,08,46,4.10
2017,11,28,08,47,4.10
2017,11,28,08,48,4.10
2017,11,28,08,49,4.10
2017,11,28,08,50,4.10
2017,11,28,08,51,4.10
2017,11,28,08,52,4.10
2017,11,28,08,53,4.10
2017,11,28,08,54,4.10
2017,11,28,08,55,4.10
2017,11,28,08,56,4.10
2017,11,28,08,57,4.10
2017,11,28,08,58,4.10
2017,11,28,08,59,4.10
2017,11,28,09,00,4.10
2017,11,28,09,01,4.10
2017,11,28,09,02,4.10
2017,11,28,09,03,4.10
2017,11,28,09,04,4.10
2017,11,28,09,05,4.10
2017,11,28,09,06,4.10
2017,11,28,09,07,4.10
2017,11,28,09,08,4.10
2017,11,28,09,09,4.10
2017,11,28,09,10,4.10
2017,11,28,09,11,4.10
2017,11,28,09,12,4.10
2017,11,28,09,13,4.20
2017,11,28,09,14,4.20
2017,11,28,09,15,4.20
2017,11,28,09,16,4.20
2017,11,28,09,17,4.20
2017,11,28,09,18,4.20
2017,11,28,09,19,4.20
2017,11,28,09,20,4.20
2017,11,28,09,21,4.20
2017,11,28,09,22,4.30
2017,11,28,09,23,4.30
2017,11,28,09,24,4.30
2017,11,28,09,25,4.30
2017,11,28,09,26,4.30
2017,11,28,09,27,4.30
2017,11,28,09,28,4.30
2017,11,28,09,29,4.30
2017,11,28,09,30,4.30
2017,11,28,09,31,4.40
2017,11,28,09,32,4.40
2017,11,28,09,33,4.40
2017,11,28,09,34,4.40
2017,11,28,09,35,4.30
2017,11,28,09,36,4.30
2017,11,28,09,37,4.30
2017,11,28,09,38,4.30
2017,11,28,09,39,4.30
2017,11,28,09,40,4.30
2017,11,28,09,41,4.20
2017,11,28,09,42,4.20
2017,11,28,09,43,4.20
2017,11,28,09,44,4.20
2017,11,28,09,45,4.20
2017,11,28,09,46,4.20
2017,11,28,09,47,4.20
2017,11,28,09,48,4.20
2017,11,28,09,49,4.20
2017,11,28,09,50,4.20
2017,11,28,09,51,4.30
2017,11,28,09,52,4.30
2017,11,28,09,53,4.30
2017,11,28,09,54,4.30
2017,11,28,09,55,4.30
2017,11,28,09,56,4.30
2017,11,28,09,57,4.40
2017,11,28,09,58,4.40
2017,11,28,09,59,4.40
2017,11,28,10,00,4.40
2017,11,28,10,01,4.40
2017,11,28,10,02,4.40
2017,11,28,10,03,4.40
2017,11,28,10,04,4.50
2017,11,28,10,05,4.50
2017,11,28,10,06,4.50
2017,11,28,10,07,4.50
2017,11,28,10,08,4.60
2017,11,28,10,09,4.60
2017,11,28,10,10,4.60
2017,11,28,10,11,4.60
2017,11,28,10,12,4.60
2017,11,28,10,13,4.60
2017,11,28,10,14,4.60
2017,11,28,10,15,4.60
2017,11,28,10,16,4.60
2017,11,28,10,17,4.70
2017,11,28,10,18,4.70
2017,11,28,10,19,4.60
2017,11,28,10,20,4.60
2017,11,28,10,21,4.60
2017,11,28,10,22,4.60
2017,11,28,10,23,4.60
2017,11,28,10,24,4.60
2017,11,28,10,25,4.60
2017,11,28,10,26,4.60
2017,11,28,10,27,4.60
2017,11,28,10,28,4.60
2017,11,28,10,29,4.60
2017,11,28,10,30,4.70
2017,11,28,10,31,4.70
2017,11,28,10,32,4.70
2017,11,28,10,33,4.70
2017,11,28,10,34,4.70
2017,11,28,10,35,4.80
2017,11,28,10,36,4.80
2017,11,28,10,37,4.80
2017,11,28,10,38,4.80
2017,11,28,10,39,4.80
2017,11,28,10,40,4.80
2017,11,28,10,41,4.80
2017,11,28,10,42,4.80
2017,11,28,10,43,4.80
2017,11,28,10,44,4.80
2017,11,28,10,45,4.80
2017,11,28,10,46,4.80
2017,11,28,10,47,4.80
2017,11,28,10,48,4.80
2017,11,28,10,49,4.80
2017,11,28,10,50,4.80
2017,11,28,10,51,4.80
2017,11,28,10,52,4.80
2017,11,28,10,53,4.80
2017,11,28,10,54,4.80
2017,11,28,10,55,4.80
2017,11,28,10,56,4.80
2017,11,28,10,57,4.80
2017,11,28,10,58,4.80
2017,11,28,10,59,4.80
2017,11,28,11,00,4.80
2017,11,28,11,01,4.80
2017,11,28,11,02,4.80
2017,11,28,11,03,4.80
2017,11,28,11,04,4.80
2017,11,28,11,05,4.80
2017,11,28,11,06,4.80
2017,11,28,11,07,4.90
2017,11,28,11,08,4.90
2017,11,28,11,09,4.90
2017,11,28,11,10,5.00
2017,11,28,11,11,5.00
2017,11,28,11,12,5.00
2017,11,28,11,13,5.00
2017,11,28,11,14,5.00
2017,11,28,11,15,5.10
2017,11,28,11,16,5.10
2017,11,28,11,17,5.10
2017,11,28,11,18,5.10
2017,11,28,11,19,5.10
2017,11,28,11,20,5.10
2017,11,28,11,21,5.10
2017,11,28,11,22,5.10
2017,11,28,11,23,5.10
2017,11,28,11,24,5.20
2017,11,28,11,25,5.20
2017,11,28,11,26,5.20
2017,11,28,11,27,5.40
2017,11,28,11,28,5.50
2017,11,28,11,29,5.70
2017,11,28,11,30,5.80
2017,11,28,11,31,5.90
2017,11,28,11,32,6.00
2017,11,28,11,33,6.00
2017,11,28,11,34,5.90
2017,11,28,11,35,5.90
2017,11,28,11,36,5.90
2017,11,28,11,37,5.90
2017,11,28,11,38,5.80
2017,11,28,11,39,5.80
2017,11,28,11,40,5.80
2017,11,28,11,41,5.80
2017,11,28,11,42,5.80
2017,11,28,11,43,5.80
2017,11,28,11,44,5.80
2017,11,28,11,45,5.70
2017,11,28,11,46,5.70
2017,11,28,11,47,5.70
2017,11,28,11,48,5.70
2017,11,28,11,49,5.60
2017,11,28,11,50,5.60
2017,11,28,11,51,5.60
2017,11,28,11,52,5.60
2017,11,28,11,53,5.50
2017,11,28,11,54,5.50
2017,11,28,11,55,5.50
2017,11,28,11,56,5.50
2017,11,28,11,57,5.40
2017,11,28,11,58,5.40
2017,11,28,11,59,5.40
2017,11,28,12,00,5.40
2017,11,28,12,01,5.40
2017,11,28,12,02,5.40
2017,11,28,12,03,5.50
2017,11,28,12,04,5.50
2017,11,28,12,05,5.50
2017,11,28,12,06,5.50
2017,11,28,12,07,5.60
2017,11,28,12,08,5.60
2017,11,28,12,09,5.60
2017,11,28,12,10,5.60
2017,11,28,12,11,5.60
2017,11,28,12,12,5.60
2017,11,28,12,13,5.60
2017,11,28,12,14,5.60
2017,11,28,12,15,5.60
2017,11,28,12,16,5.60
2017,11,28,12,17,5.60
2017,11,28,12,18,5.60
2017,11,28,12,19,5.60
2017,11,28,12,20,5.60
2017,11,28,12,21,5.60
2017,11,28,12,22,5.60
2017,11,28,12,23,5.70
2017,11,28,12,24,5.70
2017,11,28,12,25,5.70
2017,11,28,12,26,5.70
2017,11,28,12,27,5.70
2017,11,28,12,28,5.70
2017,11,28,12,29,5.70
2017,11,28,12,30,5.70
2017,11,28,12,31,5.70
2017,11,28,12,32,5.70
2017,11,28,12,33,5.70
2017,11,28,12,34,5.70
2017,11,28,12,35,5.80
2017,11,28,12,36,5.80
2017,11,28,12,37,5.90
2017,11,28,12,38,5.90
2017,11,28,12,39,6.00
2017,11,28,12,40,6.00
2017,11,28,12,41,6.00
2017,11,28,12,42,6.00
2017,11,28,12,43,6.10
2017,11,28,12,44,6.10
2017,11,28,12,45,6.20
2017,11,28,12,46,6.20
2017,11,28,12,47,6.20
2017,11,28,12,48,6.30
2017,11,28,12,49,6.30
2017,11,28,12,50,6.30
2017,11,28,12,51,6.40
2017,11,28,12,52,6.40
2017,11,28,12,53,6.40
2017,11,28,12,54,6.40
2017,11,28,12,55,6.40
2017,11,28,12,56,6.40
2017,11,28,12,57,6.50
2017,11,28,12,58,6.50
2017,11,28,12,59,6.50
2017,11,28,13,00,6.50
2017,11,28,13,01,6.60
2017,11,28,13,02,6.60
2017,11,28,13,03,6.60
2017,11,28,13,04,6.70
2017,11,28,13,05,6.70
2017,11,28,13,06,6.70
2017,11,28,13,07,6.70
2017,11,28,13,08,6.70
2017,11,28,13,09,6.60
2017,11,28,13,10,6.60
2017,11,28,13,11,6.60
2017,11,28,13,12,6.60
2017,11,28,13,13,6.60
2017,11,28,13,14,6.70
2017,11,28,13,15,6.70
2017,11,28,13,16,6.70
2017,11,28,13,17,6.70
2017,11,28,13,18,6.80
2017,11,28,13,19,6.80
2017,11,28,13,20,6.80
2017,11,28,13,21,6.90
2017,11,28,13,22,6.90
2017,11,28,13,23,6.90
2017,11,28,13,24,7.00
2017,11,28,13,25,7.10
2017,11,28,13,26,7.10
2017,11,28,13,27,7.20
2017,11,28,13,28,7.20
2017,11,28,13,29,7.30
2017,11,28,13,30,7.30
2017,11,28,13,31,7.40
2017,11,28,13,32,7.50
2017,11,28,13,33,7.50
2017,11,28,13,34,7.60
2017,11,28,13,35,7.60
2017,11,28,13,36,7.70
2017,11,28,13,37,7.80
2017,11,28,13,38,7.80
2017,11,28,13,39,7.80
2017,11,28,13,40,7.90
2017,11,28,13,41,7.90
2017,11,28,13,42,7.90
2017,11,28,13,43,7.90
2017,11,28,13,44,7.90
2017,11,28,13,45,8.00
2017,11,28,13,46,8.00
2017,11,28,13,47,8.10
2017,11,28,13,48,8.20
2017,11,28,13,49,8.20
2017,11,28,13,50,8.20
2017,11,28,13,51,8.20
2017,11,28,13,52,8.20
2017,11,28,13,53,8.20
2017,11,28,13,54,8.20
2017,11,28,13,55,8.20
2017,11,28,13,56,8.20
2017,11,28,13,57,8.20
2017,11,28,13,58,8.10
2017,11,28,13,59,8.20
2017,11,28,14,00,8.20
2017,11,28,14,01,8.10
2017,11,28,14,02,8.10
2017,11,28,14,03,8.20
2017,11,28,14,04,8.20
2017,11,28,14,05,8.20
2017,11,28,14,06,8.20
2017,11,28,14,07,8.10
2017,11,28,14,08,8.10
2017,11,28,14,09,8.00
2017,11,28,14,10,7.90
2017,11,28,14,11,7.80
2017,11,28,14,12,7.70
2017,11,28,14,13,7.60
2017,11,28,14,14,7.50
2017,11,28,14,15,7.40
2017,11,28,14,16,7.30
2017,11,28,14,17,7.30
2017,11,28,14,18,7.10
2017,11,28,14,19,7.10
2017,11,28,14,20,7.00
2017,11,28,14,21,7.00
2017,11,28,14,22,6.90
2017,11,28,14,23,6.90
2017,11,28,14,24,6.90
2017,11,28,14,25,6.90
2017,11,28,14,26,6.90
2017,11,28,14,27,6.90
2017,11,28,14,28,6.90
2017,11,28,14,29,6.90
2017,11,28,14,30,7.00
2017,11,28,14,31,7.00
2017,11,28,14,32,7.00
2017,11,28,14,33,7.10
2017,11,28,14,34,7.10
2017,11,28,14,35,7.10
2017,11,28,14,36,7.00
2017,11,28,14,37,7.00
2017,11,28,14,38,7.00
2017,11,28,14,39,7.10
2017,11,28,14,40,7.10
2017,11,28,14,41,7.10
2017,11,28,14,42,7.10
2017,11,28,14,43,7.20
2017,11,28,14,44,7.20
2017,11,28,14,45,7.20
2017,11,28,14,46,7.30
2017,11,28,14,47,7.30
2017,11,28,14,48,7.40
2017,11,28,14,49,7.40
2017,11,28,14,50,7.50
2017,11,28,14,51,7.50
2017,11,28,14,52,7.60
2017,11,28,14,53,7.60
2017,11,28,14,54,7.70
2017,11,28,14,55,7.70
2017,11,28,14,56,7.80
2017,11,28,14,57,7.90
2017,11,28,14,58,7.90
2017,11,28,14,59,8.00
2017,11,28,15,00,8.00
2017,11,28,15,01,8.00
2017,11,28,15,02,8.00
2017,11,28,15,03,8.00
2017,11,28,15,04,8.00
2017,11,28,15,05,8.00
2017,11,28,15,06,7.90
2017,11,28,15,07,7.90
2017,11,28,15,08,7.90
2017,11,28,15,09,7.90
2017,11,28,15,10,7.80
2017,11,28,15,11,7.80
2017,11,28,15,12,7.80
2017,11,28,15,13,7.80
2017,11,28,15,14,7.70
2017,11,28,15,15,7.70
2017,11,28,15,16,7.70
2017,11,28,15,17,7.70
2017,11,28,15,18,7.70
2017,11,28,15,19,7.60
2017,11,28,15,20,7.60
2017,11,28,15,21,7.50
2017,11,28,15,22,7.50
2017,11,28,15,23,7.50
2017,11,28,15,24,7.40
2017,11,28,15,25,7.40
2017,11,28,15,26,7.40
2017,11,28,15,27,7.40
2017,11,28,15,28,7.30
2017,11,28,15,29,7.20
2017,11,28,15,30,7.20
2017,11,28,15,31,7.10
2017,11,28,15,32,7.00
2017,11,28,15,33,6.90
2017,11,28,15,34,6.90
2017,11,28,15,35,6.80
2017,11,28,15,36,6.70
2017,11,28,15,37,6.70
2017,11,28,15,38,6.60
2017,11,28,15,39,6.60
2017,11,28,15,40,6.60
2017,11,28,15,41,6.50
2017,11,28,15,42,6.50
2017,11,28,15,43,6.50
2017,11,28,15,44,6.40
2017,11,28,15,45,6.40
2017,11,28,15,46,6.40
2017,11,28,15,47,6.40
2017,11,28,15,48,6.40
2017,11,28,15,49,6.30
2017,11,28,15,50,6.30
2017,11,28,15,51,6.30
2017,11,28,15,52,6.30
2017,11,28,15,53,6.30
2017,11,28,15,54,6.30
2017,11,28,15,55,6.20
2017,11,28,15,56,6.20
2017,11,28,15,57,6.20
2017,11,28,15,58,6.20
2017,11,28,15,59,6.20
2017,11,28,16,00,6.20
2017,11,28,16,01,6.10
2017,11,28,16,02,6.10
2017,11,28,16,03,6.10
2017,11,28,16,04,6.10
2017,11,28,16,05,6.10
2017,11,28,16,06,6.10
2017,11,28,16,07,6.10
2017,11,28,16,08,6.10
2017,11,28,16,09,6.00
2017,11,28,16,10,6.00
2017,11,28,16,11,6.00
2017,11,28,16,12,5.90
2017,11,28,16,13,5.80
2017,11,28,16,14,5.80
2017,11,28,16,15,5.70
2017,11,28,16,16,5.70
2017,11,28,16,17,5.70
2017,11,28,16,18,5.60
2017,11,28,16,19,5.50
2017,11,28,16,20,5.50
2017,11,28,16,21,5.40
2017,11,28,16,22,5.40
2017,11,28,16,23,5.40
2017,11,28,16,24,5.30
2017,11,28,16,25,5.30
2017,11,28,16,26,5.20
2017,11,28,16,27,5.10
2017,11,28,16,28,5.10
2017,11,28,16,29,5.00
2017,11,28,16,30,4.90
2017,11,28,16,31,4.90
2017,11,28,16,32,4.80
2017,11,28,16,33,4.80
2017,11,28,16,34,4.80
2017,11,28,16,35,4.70
2017,11,28,16,36,4.70
2017,11,28,16,37,4.60
2017,11,28,16,38,4.60
2017,11,28,16,39,4.60
2017,11,28,16,40,4.60
2017,11,28,16,41,4.50
2017,11,28,16,42,4.50
2017,11,28,16,43,4.40
2017,11,28,16,44,4.40
2017,11,28,16,45,4.30
2017,11,28,16,46,4.30
2017,11,28,16,47,4.30
2017,11,28,16,48,4.20
2017,11,28,16,49,4.20
2017,11,28,16,50,4.20
2017,11,28,16,51,4.20
2017,11,28,16,52,4.20
2017,11,28,16,53,4.10
2017,11,28,16,54,4.10
2017,11,28,16,55,4.00
2017,11,28,16,56,4.00
2017,11,28,16,57,3.90
2017,11,28,16,58,3.90
2017,11,28,16,59,3.80
2017,11,28,17,00,3.80
2017,11,28,17,01,3.80
2017,11,28,17,02,3.80
2017,11,28,17,03,3.70
2017,11,28,17,04,3.70
2017,11,28,17,05,3.70
2017,11,28,17,06,3.80
2017,11,28,17,07,3.80
2017,11,28,17,08,3.80
2017,11,28,17,09,3.80
2017,11,28,17,10,3.90
2017,11,28,17,11,3.90
2017,11,28,17,12,3.80
2017,11,28,17,13,3.80
2017,11,28,17,14,3.80
2017,11,28,17,15,3.80
2017,11,28,17,16,3.80
2017,11,28,17,17,3.80
2017,11,28,17,18,3.70
2017,11,28,17,19,3.70
2017,11,28,17,20,3.70
2017,11,28,17,21,3.60
2017,11,28,17,22,3.60
2017,11,28,17,23,3.50
2017,11,28,17,24,3.50
2017,11,28,17,25,3.40
2017,11,28,17,26,3.40
2017,11,28,17,27,3.40
2017,11,28,17,28,3.30
2017,11,28,17,29,3.30
2017,11,28,17,30,3.30
2017,11,28,17,31,3.30
2017,11,28,17,32,3.30
2017,11,28,17,33,3.40
2017,11,28,17,34,3.40
2017,11,28,17,35,3.50
2017,11,28,17,36,3.50
2017,11,28,17,37,3.60
2017,11,28,17,38,3.70
2017,11,28,17,39,3.80
2017,11,28,17,40,3.80
2017,11,28,17,41,3.90
2017,11,28,17,42,3.90
2017,11,28,17,43,4.00
2017,11,28,17,44,4.00
2017,11,28,17,45,4.10
2017,11,28,17,46,4.10
2017,11,28,17,47,4.10
2017,11,28,17,48,4.10
2017,11,28,17,49,4.10
2017,11,28,17,50,4.10
2017,11,28,17,51,4.20
2017,11,28,17,52,4.20
2017,11,28,17,53,4.20
2017,11,28,17,54,4.20
2017,11,28,17,55,4.20
2017,11,28,17,56,4.20
2017,11,28,17,57,4.10
2017,11,28,17,58,4.10
2017,11,28,17,59,4.00
2017,11,28,18,00,3.90
2017,11,28,18,01,3.80
2017,11,28,18,02,3.70
2017,11,28,18,03,3.60
2017,11,28,18,04,3.50
2017,11,28,18,05,3.40
2017,11,28,18,06,3.30
2017,11,28,18,07,3.30
2017,11,28,18,08,3.20
2017,11,28,18,09,3.10
2017,11,28,18,10,3.00
2017,11,28,18,11,3.00
2017,11,28,18,12,3.00
2017,11,28,18,13,2.90
2017,11,28,18,14,2.90
2017,11,28,18,15,2.80
2017,11,28,18,16,2.80
2017,11,28,18,17,2.80
2017,11,28,18,18,2.90
2017,11,28,18,19,2.90
2017,11,28,18,20,3.00
2017,11,28,18,21,3.10
2017,11,28,18,22,3.20
2017,11,28,18,23,3.30
2017,11,28,18,24,3.40
2017,11,28,18,25,3.40
2017,11,28,18,26,3.30
2017,11,28,18,27,3.30
2017,11,28,18,28,3.30
2017,11,28,18,29,3.30
2017,11,28,18,30,3.20
2017,11,28,18,31,3.20
2017,11,28,18,32,3.10
2017,11,28,18,33,3.10
2017,11,28,18,34,3.10
2017,11,28,18,35,3.10
2017,11,28,18,36,3.20
2017,11,28,18,37,3.20
2017,11,28,18,38,3.20
2017,11,28,18,39,3.20
2017,11,28,18,40,3.20
2017,11,28,18,41,3.10
2017,11,28,18,42,3.10
2017,11,28,18,43,3.10
2017,11,28,18,44,3.00
2017,11,28,18,45,3.10
2017,11,28,18,46,3.30
2017,11,28,18,47,3.40
2017,11,28,18,48,3.50
2017,11,28,18,49,3.70
2017,11,28,18,50,3.70
2017,11,28,18,51,3.70
2017,11,28,18,52,3.60
2017,11,28,18,53,3.50
2017,11,28,18,54,3.50
2017,11,28,18,55,3.50
2017,11,28,18,56,3.50
2017,11,28,18,57,3.40
2017,11,28,18,58,3.40
2017,11,28,18,59,3.40
2017,11,28,19,00,3.30
2017,11,28,19,01,3.30
2017,11,28,19,02,3.30
2017,11,28,19,03,3.30
2017,11,28,19,04,3.20
2017,11,28,19,05,3.20
2017,11,28,19,06,3.10
2017,11,28,19,07,3.10
2017,11,28,19,08,3.00
2017,11,28,19,09,3.00
2017,11,28,19,10,2.90
2017,11,28,19,11,2.90
2017,11,28,19,12,2.90
2017,11,28,19,13,2.80
2017,11,28,19,14,2.80
2017,11,28,19,15,2.80
2017,11,28,19,16,2.80
2017,11,28,19,17,2.80
2017,11,28,19,18,2.80
2017,11,28,19,19,2.80
2017,11,28,19,20,2.90
2017,11,28,19,21,2.90
2017,11,28,19,22,3.00
2017,11,28,19,23,3.00
2017,11,28,19,24,3.00
2017,11,28,19,25,2.90
2017,11,28,19,26,2.90
2017,11,28,19,27,2.80
2017,11,28,19,28,2.90
2017,11,28,19,29,2.90
2017,11,28,19,30,3.00
2017,11,28,19,31,3.10
2017,11,28,19,32,3.10
2017,11,28,19,33,3.10
2017,11,28,19,34,3.00